WB9FQS Weather Reports


time (UTC)temp
C
wind
direction
speed
KPH
gust
KPH
rain 1hr
cm
rain 24hr
cm
rain mn
cm
humidity
%
barometer
mb
20260509101601 10 118 0.0 3.2 0.00 0.00 0.00 14 1004.8
20260509100058 10 137 0.0 1.6 0.00 0.00 0.00 15 1004.9
20260509094548 10 174 0.0 3.2 0.00 0.00 0.00 15 1005.1
20260509093045 10 179 1.6 8.0 0.00 0.00 0.00 15 1005.1
20260509091539 10 165 0.0 1.6 0.00 0.00 0.00 11 1005.1
20260509090047 10 329 0.0 6.4 0.00 0.00 0.00 15 1005.0
20260509084535 10 144 0.0 0.0 0.00 0.00 0.00 17 1005.0
20260509083035 10 141 0.0 0.0 0.00 0.00 0.00 20 1005.1
20260509081532 10 141 0.0 0.0 0.00 0.00 0.00 25 1005.1
20260509080030 10 141 0.0 0.0 0.00 0.00 0.00 31 1005.3
20260509074528 10 141 0.0 0.0 0.00 0.00 0.00 32 1005.2
20260509073026 10 162 0.0 0.0 0.00 0.00 0.00 32 1005.1
20260509071524 10 141 0.0 0.0 0.00 0.00 0.00 38 1005.4
20260509070021 10 144 0.0 0.0 0.00 0.00 0.00 42 1005.8
20260509064518 10 144 0.0 0.0 0.00 0.00 0.00 49 1005.9
20260509063018 11 144 0.0 0.0 0.00 0.00 0.00 54 1006.1
20260509061514 11 144 0.0 0.0 0.00 0.00 0.00 53 1005.9
20260509060010 11 137 0.0 0.0 0.00 0.00 0.00 60 1006.1
20260509054508 11 144 0.0 0.0 0.00 0.00 0.00 67 1006.0
20260509053007 11 137 0.0 0.0 0.00 0.00 0.00 71 1006.3
20260509051503 11 153 0.0 0.0 0.00 0.00 0.00 74 1006.2
20260509050100 12 158 0.0 0.0 0.00 0.00 0.00 73 1006.4
20260509044556 12 158 0.0 0.0 0.00 0.00 0.00 76 1006.5
20260509043059 12 163 0.0 0.0 0.00 0.00 0.00 79 1006.5
20260509041548 12 164 0.0 0.0 0.00 0.00 0.00 80 1006.6
20260509040046 12 184 0.0 1.6 0.00 0.00 0.00 80 1006.6
20260509034539 12 141 0.0 0.0 0.00 0.03 0.00 80 1006.8
20260509033036 13 149 0.0 0.0 0.00 0.03 0.00 80 1006.8
20260509031534 13 149 0.0 0.0 0.00 0.03 0.00 80 1007.0
20260509030032 13 150 0.0 0.0 0.00 0.03 0.00 80 1007.1
20260509024533 13 150 0.0 0.0 0.00 0.03 0.00 80 1007.1
20260509023019 13 150 0.0 1.6 0.00 0.03 0.00 80 1007.1
20260509021516 14 150 0.0 1.6 0.00 0.03 0.00 80 1007.0
20260509020007 14 164 0.0 0.0 0.00 0.03 0.00 79 1007.0
20260509014503 15 180 0.0 4.8 0.00 0.03 0.00 77 1006.9
20260509013110 15 186 0.0 0.0 0.00 0.03 0.00 76 1006.8
20260509011554 15 188 0.0 0.0 0.00 0.03 0.00 75 1006.8
20260509010049 16 189 0.0 0.0 0.00 0.03 0.00 74 1006.7
20260509004550 16 197 0.0 3.2 0.00 0.03 0.00 75 1006.6
20260509003042 16 164 0.0 1.6 0.00 0.03 0.00 75 1006.6
20260509001536 16 154 0.0 1.6 0.00 0.03 0.00 75 1006.6
20260509000033 16 192 0.0 1.6 0.00 0.03 0.00 73 1006.6
20260508234527 16 198 0.0 4.8 0.00 0.13 0.00 71 1006.5
20260508233023 16 193 0.0 0.0 0.00 0.13 0.00 70 1006.6
20260508231518 16 279 0.0 4.8 0.00 0.13 0.00 68 1006.8
20260508230013 16 205 4.8 8.0 0.00 0.13 0.00 69 1006.9
20260508224509 16 170 0.0 1.6 0.00 0.13 0.00 69 1006.8
20260508223014 16 210 0.0 8.0 0.00 0.13 0.00 70 1006.9
20260508221602 16 189 0.0 1.6 0.00 0.13 0.00 69 1006.9
20260508220057 16 185 0.0 8.0 0.00 0.13 0.00 69 1007.0
20260508214607 16 170 0.0 0.0 0.00 0.13 0.00 68 1007.0
20260508213058 16 238 4.8 9.7 0.00 0.13 0.00 69 1007.1
20260508211542 16 218 3.2 11.3 0.00 0.13 0.00 70 1007.2
20260508210040 16 236 3.2 9.7 0.00 0.13 0.00 67 1007.3
20260508204533 16 219 1.6 12.9 0.00 0.13 0.00 68 1007.5
20260508203033 16 248 4.8 11.3 0.00 0.13 0.00 68 1007.7
20260508201524 16 195 0.0 9.7 0.00 0.13 0.00 69 1008.0
20260508200020 16 234 0.0 12.9 0.00 0.13 0.00 68 1008.2
20260508194514 16 220 3.2 9.7 0.00 0.13 0.00 71 1008.3
20260508193012 16 226 6.4 12.9 0.00 0.13 0.00 70 1008.5
20260508191505 16 246 3.2 9.7 0.00 0.13 0.00 72 1008.6
20260508190001 16 201 0.0 6.4 0.00 0.13 0.00 69 1008.8
20260508184558 16 196 0.0 9.7 0.00 0.13 0.00 69 1009.0
20260508183055 16 213 3.2 12.9 0.00 0.13 0.00 69 1009.2
20260508181609 16 238 4.8 9.7 0.00 0.13 0.00 70 1009.3
20260508174540 16 1 3.2 12.9 0.00 0.13 0.00 73 1009.7
20260508173036 16 206 4.8 12.9 0.00 0.13 0.00 72 1010.0
20260508171530 16 208 3.2 8.0 0.00 0.13 0.00 70 1010.1
20260508170026 16 180 0.0 3.2 0.00 0.13 0.00 72 1010.4
20260508164533 15 93 0.0 8.0 0.00 0.13 0.00 73 1010.6
20260508163016 15 199 1.6 4.8 0.00 0.13 0.00 72 1010.8
20260508161511 15 93 0.0 8.0 0.00 0.13 0.00 75 1010.9
20260508160015 15 141 0.0 1.6 0.00 0.13 0.00 75 1011.1
20260508154503 15 130 0.0 1.6 0.00 0.13 0.00 74 1011.2
20260508153105 15 148 0.0 8.0 0.00 0.13 0.00 76 1011.3
20260508151558 15 201 0.0 3.2 0.00 0.13 0.00 75 1011.4
20260508150050 13 203 0.0 6.4 0.00 0.13 0.00 77 1011.5
20260508144545 13 208 0.0 6.4 0.00 0.13 0.00 80 1011.4
20260508143040 12 170 0.0 3.2 0.00 0.13 0.00 80 1011.5
20260508141546 12 74 0.0 6.4 0.00 0.13 0.00 80 1011.5
20260508140032 12 201 0.0 11.3 0.00 0.13 0.00 80 1011.4
20260508134526 11 205 1.6 6.4 0.00 0.13 0.00 79 1011.7
20260508133022 10 172 0.0 1.6 0.00 0.13 0.00 74 1011.7
20260508131518 10 155 0.0 1.6 0.00 0.13 0.00 54 1012.0
20260508130013 8 196 0.0 3.2 0.00 0.13 0.00 1 1012.0
20260508124508 7 126 0.0 0.0 0.00 0.13 0.00 4 1012.2
20260508123004 7 126 0.0 0.0 0.00 0.13 0.00 5 1012.1
20260508121611 7 122 0.0 0.0 0.00 0.13 0.00 7 1011.7
20260508120101 6 122 0.0 0.0 0.00 0.13 0.00 8 1011.8
20260508114551 6 122 0.0 0.0 0.00 0.13 0.00 10 1011.5
20260508113055 5 122 0.0 0.0 0.00 0.13 0.00 12 1011.8
20260508111553 5 127 0.0 0.0 0.00 0.13 0.00 13 1011.6
20260508110051 5 127 0.0 0.0 0.00 0.13 0.00 15 1011.5
20260508104533 5 127 0.0 0.0 0.00 0.13 0.00 16 1011.4
20260508103034 4 127 0.0 0.0 0.00 0.13 0.00 19 1011.7